Location: Acts Church of Fort Worth
(32.6786°N, 97.2668°W)
Time: 22:03:45
(UTC+00:00)

MOS 1 Rocket - Pass Details

Date: 18 January 2026
Orbit: 608 x 815 km, 97.4° (Epoch: 11 February)

Event Time Altitude Azimuth Distance (km) Brightness Sun altitude
Rises 00:02:40 0° 163° (SSE) 3,317 6.9 -3.7°
Reaches altitude 10° 00:05:02 10° 162° (SSE) 2,380 6.1 -4.1°
Maximum altitude 00:10:19 76° 77° (ENE) 815 3.5 -5.2°
Drops below altitude 10° 00:15:25 10° 352° (N) 2,304 5.9 -6.2°
Sets 00:17:41 0° 351° (N) 3,204 6.6 -6.6°
